Terminal Aerodrome Forecast
Issued by NWS Omaha/Valley, NE

Home | Current Version | Previous Version | Graphics & Text | Print | Product List | Glossary On
Versions: 1 2 3 4 5 6 7 8 9 10 11 12 13 14 15 16 17 18 19 20 21 22 23 24 25 26 27 28 29 30 31 32 33 34 35 36 37 38 39 40 41 42 43
000
FTUS43 KOAX 250521
TAFOFK
TAF
KOFK 250521Z 2506/2606 30009KT P6SM SKC
     FM251300 22009KT P6SM SCT030
     FM251800 20009KT P6SM OVC100
     FM260000 19010KT P6SM OVC050 PROB30 2601/2604 5SM -RA BKN035
     FM260400 28010KT P6SM OVC050 PROB30 2604/2606 5SM -RASN BKN030=

USA.gov is the U.S. government's official web portal to all federal, state and local government web resources and services.